Wind_Speed
33 30 32 29 24 27 29 32 34 35 34 34 36 35 35 32 35 39 48 46 47 46 47 43 38 35 35 32 32 29 28 26 23 19 18 17 16 16 17 18 18 19 20
35 34 31 28 20 22 27 32 34 36 35 38 40 37 35 35 29 37 44 45 48 47 46 43 41 41 40 33 32 31 32 29 29 22 17 12 17 20 21 19 20 19 19
33 34 31 25 18 13 15 24 29 33 36 37 35 33 30 33 38 38 39 47 47 44 45 44 45 43 43 40 36 37 34 34 31 30 17 9 11 15 21 24 23 22 21
36 34 29 24 17 12 13 18 23 29 31 31 33 35 33 34 36 43 41 41 43 46 45 46 46 46 45 41 38 40 38 36 36 35 33 18 10 12 9 16 21 23 22
31 32 30 25 21 15 11 16 19 24 28 31 29 32 33 32 34 38 41 43 45 45 45 48 45 47 47 42 40 42 41 39 37 42 38 34 24 14 11 10 13 18 25
30 29 28 25 18 16 15 13 17 21 25 28 30 33 33 33 31 36 40 41 43 47 43 47 46 46 47 45 43 45 43 41 39 33 37 37 36 33 24 17 15 14 16
29 33 35 31 20 14 3 8 15 22 23 28 32 33 35 35 34 40 34 45 44 42 46 43 44 43 44 43 43 45 44 42 40 36 30 35 34 33 22 20 19 18 16
34 33 34 35 27 18 5 6 8 16 20 24 30 32 35 38 38 37 31 32 41 45 45 46 44 41 43 43 42 44 44 42 40 39 40 39 37 35 32 30 24 21 21
31 33 34 36 29 28 19 9 4 14 17 24 22 28 33 36 37 40 42 42 36 41 43 44 42 43 43 45 45 43 41 38 39 41 42 38 36 36 35 33 33 30 25
29 29 32 33 34 30 22 19 2 7 22 19 27 21 29 31 39 39 29 30 32 35 37 40 41 43 39 44 44 45 38 39 38 38 40 39 38 35 32 32 35 35 38
23 24 28 29 32 32 34 24 19 8 8 16 22 15 23 24 22 25 24 27 27 28 31 38 40 41 48 49 42 40 44 41 43 42 49 49 43 40 39 39 40 37 34
17 19 22 26 29 30 31 31 31 30 25 17 5 6 12 16 18 18 15 16 15 16 22 23 25 27 25 29 25 22 21 23 32 39 45 49 51 46 42 39 34 33 33
13 16 18 23 25 25 28 28 30 33 27 23 16 12 7 8 11 13 13 14 12 12 11 14 22 29 23 28 25 23 24 28 33 33 33 31 31 33 34 31 29 29 27
10 11 14 16 18 20 22 22 25 27 28 26 24 26 22 20 19 12 11 10 9 12 10 9 17 20 11 14 19 17 16 18 20 23 25 31 31 31 34 40 37 35 33
7 8 10 12 14 17 19 19 19 20 21 21 23 22 16 18 17 17 16 18 17 17 17 14 12 10 13 16 16 18 19 19 20 28 28 27 28 29 32 34 39 41 42
6 6 7 8 10 12 14 16 18 18 16 17 18 16 15 14 14 17 15 11 11 9 8 5 5 7 8 8 7 8 11 11 16 21 22 21 26 24 26 30 33 33 36
5 5 6 6 7 9 10 12 13 14 15 16 15 14 13 12 13 13 12 12 11 9 7 6 5 5 5 5 6 5 12 15 18 16 16 15 16 17 18 17 17 24 23
7 5 4 4 4 4 6 7 8 8 9 11 12 12 12 12 11 10 10 9 7 6 6 5 4 3 1 1 3 5 6 9 11 12 13 14 15 17 18 19 19 18 20
9 7 6 6 4 3 3 4 5 6 7 7 7 9 9 9 8 8 8 7 6 6 5 3 2 1 2 4 6 7 9 11 13 15 16 17 17 18 18 21 23 24 21
12 10 9 7 5 5 2 2 3 4 4 5 7 8 8 8 7 7 6 5 5 4 4 3 2 2 5 7 9 10 10 12 14 15 17 18 17 17 18 22 23 24 25
13 13 12 11 9 9 6 4 3 3 3 3 4 5 6 6 6 5 5 6 6 6 6 5 6 7 7 9 11 12 13 15 17 18 19 19 20 18 22 24 25 25 25
14 15 13 12 13 12 10 8 7 5 3 2 1 3 3 3 4 5 5 5 6 6 7 7 8 9 10 10 10 11 12 13 15 16 17 20 22 21 22 26 26 26 27
15 16 16 14 14 14 14 13 12 9 6 5 4 3 3 3 4 5 6 7 8 9 10 11 11 11 11 11 14 15 15 15 17 18 20 21 22 21 22 23 27 29 29
18 17 16 16 16 16 16 15 15 12 10 8 7 5 5 5 6 7 8 7 8 8 9 10 12 14 13 14 15 17 17 18 20 21 23 23 24 25 25 25 24 26 28
22 21 20 19 18 15 16 17 18 16 14 12 10 9 9 9 8 9 9 9 11 11 12 12 13 15 15 15 17 19 20 20 21 23 23 24 25 26 26 27 26 23 24
23 24 23 22 20 18 18 18 20 19 18 16 14 12 11 10 10 11 10 11 11 12 13 13 12 12 15 17 18 19 20 21 22 22 23 22 23 24 25 29 28 28 27
Wind_Direction
317 315 310 305 296 270 246 240 233 228 223 214 215 216 220 211 224 223 222 219 216 214 213 220 212 212 218 215 209 207 209 204 204 207 213 221 231 230 230 231 228 238 240
328 327 328 327 319 285 252 233 229 223 220 217 216 217 217 227 215 213 222 222 216 220 216 219 220 220 222 218 215 213 211 216 206 206 205 221 233 237 233 233 238 233 245
332 339 342 336 319 303 251 230 230 224 218 218 215 214 220 220 223 213 215 214 220 221 220 225 226 225 225 226 222 220 219 217 214 209 195 207 226 235 245 239 231 234 233
345 345 347 337 328 313 276 235 229 223 220 214 212 209 211 216 219 222 217 211 216 224 221 229 226 229 227 228 227 228 225 224 222 217 216 210 223 226 217 231 245 234 236
340 342 348 342 318 287 274 248 231 222 219 216 218 215 215 220 226 221 225 223 218 224 222 228 227 228 232 231 231 228 229 229 227 232 227 214 223 212 228 239 236 240 238
345 352 6 4 348 295 269 250 233 219 217 219 221 220 221 220 220 220 222 214 218 216 227 229 232 230 233 234 234 239 236 231 230 230 233 229 226 231 234 247 251 260 252
354 358 5 10 10 359 307 265 240 230 216 222 224 227 228 224 221 216 210 218 219 216 221 216 223 232 232 236 237 241 241 235 231 223 231 234 237 241 241 249 243 253 250
1 4 10 13 20 25 308 285 261 231 217 220 225 226 227 223 222 218 213 218 217 219 226 231 230 237 239 236 240 232 239 240 232 230 234 242 245 247 248 241 241 248 255
357 3 13 17 20 25 27 24 264 244 231 224 222 222 220 217 218 218 221 225 226 231 232 236 238 239 240 238 238 235 238 241 236 230 228 245 248 254 252 249 256 252 254
357 2 10 17 28 21 22 27 82 277 235 230 224 224 214 207 209 213 213 215 223 229 235 239 240 238 238 242 237 241 233 241 240 230 228 232 236 243 252 258 260 265 260
359 3 1 23 34 37 28 36 63 76 229 211 214 224 155 169 185 194 208 218 223 227 231 236 223 240 240 236 231 239 242 235 230 239 231 232 240 241 251 260 258 257 264
1 6 7 20 30 36 34 23 55 65 73 184 178 138 139 159 175 178 182 191 203 217 226 225 233 237 244 247 223 235 240 246 239 239 239 238 239 250 250 255 257 267 280
4 9 12 13 21 29 44 40 43 63 70 87 97 112 127 168 178 186 185 185 190 194 203 219 239 233 240 228 254 242 251 245 235 237 233 241 243 246 250 262 273 277 281
356 9 15 16 16 24 34 43 50 52 64 62 66 73 84 99 108 146 179 187 210 208 199 212 235 224 212 231 227 220 226 237 242 242 245 246 245 259 262 259 269 276 278
336 2 9 15 19 26 29 34 47 59 63 65 62 60 62 79 88 96 101 110 115 120 128 133 147 172 202 220 230 239 245 261 260 254 259 258 261 264 267 270 272 272 273
301 331 351 6 17 25 34 35 37 51 62 68 74 79 71 73 79 92 100 102 102 103 112 136 156 173 196 210 226 224 231 247 251 251 258 268 269 260 265 269 270 267 273
248 287 316 335 356 15 25 32 38 43 54 65 73 77 81 89 91 91 95 99 102 110 116 127 136 150 172 205 228 232 235 243 248 249 243 249 253 254 258 261 269 269 276
234 248 274 299 322 355 14 27 32 34 49 62 71 73 74 74 76 82 87 91 94 92 90 88 86 82 64 287 278 254 249 258 262 264 268 270 270 275 269 270 276 277 277
233 238 253 270 292 315 350 20 33 39 37 46 55 65 71 68 68 69 72 72 72 70 72 71 62 322 304 277 268 269 267 268 272 271 275 282 284 282 282 279 278 283 281
217 229 246 256 264 273 284 352 4 10 38 62 62 61 58 60 61 63 66 60 49 46 48 34 6 319 304 292 288 285 288 287 286 290 289 284 285 288 290 286 283 281 282
216 226 234 240 240 248 249 259 282 311 340 9 36 44 47 45 45 44 43 47 46 36 34 27 9 354 337 327 317 308 305 298 294 294 295 293 291 288 285 284 283 283 279
222 233 233 236 242 244 242 243 251 264 270 281 331 356 6 19 30 30 26 18 11 359 355 350 340 333 334 329 325 324 325 320 315 313 312 307 305 302 291 289 288 286 281
237 240 242 241 244 241 239 241 244 243 250 253 261 277 298 334 352 355 358 355 350 346 343 338 332 327 324 318 313 317 315 308 307 305 306 307 309 306 305 298 291 289 284
239 241 239 237 242 245 243 239 240 238 241 245 253 263 277 297 312 325 329 332 330 332 328 320 318 316 316 312 311 312 311 308 304 300 298 299 297 294 294 294 293 288 286
244 240 243 243 243 237 242 240 240 237 236 239 247 255 266 274 286 294 296 299 301 311 311 309 313 318 322 323 323 322 319 317 315 311 308 305 299 300 298 295 294 296 294
243 241 241 241 242 239 241 240 240 237 236 239 246 252 260 269 279 286 291 290 293 297 299 301 305 309 311 313 313 312 312 314 312 308 307 306 307 304 305 305 305 302 298
Height
1447 1440 1433 1427 1420 1416 1417 1420 1423 1426 1431 1435 1438 1441 1443 1449 1452 1457 1463 1469 1472 1479 1485 1491 1498 1502 1506 1511 1515 1519 1523 1526 1530 1533 1534 1536 1538 1538 1539 1540 1541 1542 1541
1441 1433 1424 1417 1414 1409 1408 1411 1414 1418 1422 1426 1429 1434 1439 1442 1447 1451 1455 1460 1465 1472 1479 1485 1491 1497 1500 1505 1509 1513 1517 1521 1524 1528 1531 1533 1535 1534 1534 1536 1537 1539 1539
1439 1428 1418 1414 1409 1407 1405 1406 1409 1412 1415 1420 1425 1429 1434 1438 1441 1443 1447 1452 1460 1466 1473 1479 1484 1489 1494 1498 1502 1507 1510 1515 1519 1522 1526 1529 1528 1529 1529 1529 1532 1534 1536
1437 1428 1420 1411 1406 1404 1403 1403 1405 1408 1412 1416 1418 1422 1425 1429 1432 1438 1443 1448 1453 1459 1465 1470 1478 1481 1487 1492 1497 1501 1504 1509 1513 1517 1519 1523 1524 1525 1526 1525 1526 1529 1531
1437 1428 1419 1412 1405 1401 1398 1400 1401 1404 1408 1411 1414 1418 1421 1424 1428 1433 1438 1442 1448 1452 1458 1464 1470 1475 1480 1486 1490 1495 1498 1502 1507 1508 1512 1517 1519 1520 1522 1523 1522 1524 1526
1435 1427 1418 1409 1403 1398 1397 1396 1397 1398 1401 1405 1408 1411 1415 1419 1422 1425 1431 1437 1442 1447 1452 1458 1463 1469 1473 1478 1484 1487 1492 1496 1500 1505 1507 1509 1512 1515 1517 1519 1520 1521 1521
1433 1423 1415 1407 1401 1395 1393 1393 1393 1393 1395 1398 1401 1405 1409 1413 1417 1420 1425 1430 1437 1440 1446 1451 1456 1462 1466 1468 1477 1480 1484 1489 1491 1501 1502 1504 1508 1510 1513 1514 1515 1517 1518
1431 1424 1416 1407 1401 1396 1394 1392 1391 1389 1390 1393 1394 1398 1401 1407 1412 1417 1420 1421 1431 1436 1442 1445 1450 1456 1461 1464 1469 1474 1477 1481 1486 1490 1496 1499 1501 1505 1507 1510 1511 1511 1513
1434 1425 1416 1409 1403 1397 1393 1390 1386 1386 1386 1386 1389 1391 1394 1399 1406 1412 1418 1421 1425 1431 1436 1440 1445 1449 1452 1458 1463 1463 1469 1473 1479 1483 1487 1493 1495 1499 1502 1504 1504 1506 1507
1435 1428 1422 1414 1406 1402 1395 1390 1384 1382 1380 1381 1383 1386 1388 1394 1400 1407 1412 1417 1422 1427 1432 1436 1440 1443 1447 1452 1456 1458 1460 1465 1471 1475 1480 1484 1487 1490 1494 1497 1499 1498 1500
1438 1433 1427 1419 1413 1407 1400 1393 1385 1383 1380 1382 1383 1381 1379 1386 1400 1403 1409 1413 1419 1424 1428 1430 1432 1437 1441 1444 1447 1452 1454 1457 1461 1469 1472 1476 1480 1482 1487 1491 1492 1492 1493
1442 1436 1431 1423 1418 1412 1408 1400 1389 1384 1383 1383 1385 1387 1388 1392 1398 1403 1409 1412 1416 1420 1423 1426 1430 1436 1439 1442 1443 1448 1451 1454 1457 1460 1465 1467 1473 1477 1482 1483 1484 1484 1484
1442 1438 1434 1429 1425 1421 1415 1409 1401 1396 1394 1391 1389 1390 1393 1396 1400 1404 1409 1412 1415 1417 1421 1424 1426 1429 1434 1437 1441 1443 1447 1450 1453 1455 1458 1462 1466 1470 1473 1476 1476 1478 1478
1442 1440 1437 1435 1431 1426 1421 1417 1412 1408 1404 1402 1399 1398 1400 1402 1403 1406 1408 1410 1412 1415 1419 1421 1424 1428 1432 1435 1439 1441 1444 1447 1449 1452 1454 1458 1461 1464 1467 1468 1469 1471 1471
1441 1440 1438 1437 1434 1430 1427 1424 1421 1417 1414 1411 1409 1408 1407 1408 1407 1407 1408 1410 1414 1415 1418 1422 1425 1428 1431 1434 1436 1440 1444 1445 1446 1449 1451 1454 1457 1459 1460 1461 1462 1463 1463
1441 1439 1438 1437 1435 1432 1431 1428 1427 1424 1422 1420 1417 1417 1415 1414 1413 1414 1416 1417 1418 1419 1420 1424 1427 1429 1432 1435 1436 1439 1441 1442 1444 1446 1448 1449 1451 1451 1452 1453 1454 1455 1453
1440 1438 1437 1436 1435 1434 1433 1431 1430 1428 1427 1425 1423 1421 1421 1419 1420 1420 1420 1420 1421 1424 1426 1427 1429 1430 1433 1435 1436 1437 1438 1439 1440 1441 1442 1442 1443 1445 1445 1445 1445 1447 1446
1439 1438 1437 1436 1435 1434 1434 1432 1431 1431 1430 1428 1428 1427 1426 1425 1425 1425 1424 1425 1427 1427 1427 1429 1430 1432 1433 1435 1436 1436 1435 1437 1439 1439 1439 1440 1441 1441 1441 1442 1441 1440 1441
1438 1438 1437 1436 1435 1434 1433 1433 1432 1431 1430 1429 1428 1427 1426 1427 1427 1426 1426 1427 1428 1428 1428 1430 1431 1432 1432 1434 1434 1434 1434 1436 1437 1436 1437 1436 1436 1437 1435 1435 1433 1435 1433
1434 1434 1435 1435 1435 1434 1434 1433 1432 1431 1430 1430 1430 1429 1428 1427 1427 1428 1428 1428 1429 1429 1431 1432 1432 1432 1433 1432 1431 1432 1431 1431 1432 1430 1431 1431 1431 1431 1430 1430 1430 1428 1429
1430 1430 1432 1433 1433 1433 1433 1433 1432 1431 1430 1429 1429 1429 1428 1428 1428 1428 1427 1428 1429 1430 1430 1430 1429 1428 1429 1428 1428 1428 1428 1427 1427 1427 1428 1426 1425 1424 1426 1425 1424 1421 1422
1427 1427 1428 1428 1429 1430 1431 1431 1431 1430 1430 1429 1429 1429 1429 1429 1428 1428 1428 1427 1426 1427 1427 1427 1427 1427 1428 1427 1427 1426 1425 1425 1423 1423 1421 1423 1420 1418 1419 1419 1419 1416 1416
1423 1424 1425 1425 1425 1426 1427 1428 1429 1430 1430 1430 1429 1430 1430 1429 1428 1428 1427 1426 1426 1425 1425 1426 1427 1426 1427 1425 1423 1421 1421 1423 1421 1419 1418 1416 1415 1413 1413 1413 1413 1411 1410
1419 1420 1421 1421 1422 1422 1423 1425 1425 1427 1428 1429 1430 1429 1429 1428 1427 1427 1427 1428 1426 1426 1427 1427 1427 1426 1424 1421 1420 1420 1420 1419 1416 1414 1412 1411 1410 1408 1408 1406 1405 1405 1403
1413 1414 1415 1417 1418 1419 1420 1421 1422 1423 1425 1426 1427 1428 1427 1427 1427 1426 1426 1427 1426 1426 1425 1425 1423 1422 1421 1419 1418 1417 1416 1413 1411 1408 1407 1406 1404 1401 1400 1399 1398 1397 1396
1407 1408 1409 1410 1412 1414 1415 1416 1418 1420 1422 1422 1424 1424 1425 1425 1425 1425 1424 1423 1423 1423 1422 1422 1421 1420 1419 1417 1416 1415 1413 1409 1406 1404 1402 1399 1397 1395 1394 1392 1390 1389 1389